Вернуться в каталог

SCOUT X-4 DEB

АктивенLEO
NORAD 2011·DEBRIS·🇺🇸 United States

Запущен Apr 29, 1965 с Wallops Flight Facility

Loading…

Ближайшие Пролёты (ближайшие 24 часа)

TLE

СвежийSource: Space-Track

Эпоха: Sep 14, 2026, 15:20 UTC

1 02011U 65032D   26257.63909675  .00001308  00000-0  21738-2 0  9992
2 02011  41.1972  97.5380 0219504  45.6173   2.8825 13.41107927989331

Отслеживайте SCOUT X-4 DEB в реальном времени с AllMySat

Download on the App Store